Regional Weather Roundup
Issued by NWS

Home | Current Version | Previous Version | Graphics & Text | Print | Product List | Glossary On
Versions: 1 2 3 4 5 6 7 8 9 10 11 12 13 14 15 16 17 18 19 20 21 22 23 24 25 26 27 28 29 30 31 32 33 34 35 36 37 38 39 40 41 42 43 44 45 46 47 48 49 50
886
ASUS45 KBOU 260107
RWRCO

WEATHER ROUNDUP FOR COLORADO
NATIONAL WEATHER SERVICE DENVER/BOULDER CO
700 PM MDT TUE JUL 25 2017

NOTE: "FAIR" INDICATES FEW OR NO CLOUDS BELOW 12000 FEET WITH NO
SIGNIFICANT WEATHER AND/OR OBSTRUCTIONS TO VISIBILITY.

COZ001>005-013-030-031-260200-
...NORTHWEST COLORADO...

CITY           SKY/WX    TMP DP  RH WIND       PRES   REMARKS
CRAIG          LGT RAIN  69  60  73 CALM      30.23R
HAYDEN         FAIR      64  55  72 S3        30.25S
MEEKER         PTSUNNY   71  58  63 NW7       30.23R
RABBIT EARS PA CLOUDY    55  50  82 CALM      30.53S
STEAMBOAT SPGS FAIR      67  57  71 SW5       30.26S
WALDEN         PTSUNNY   63  54  72 N8        30.36F
$$

COZ006>008-011-260200-
...WEST CENTRAL VALLEYS...

CITY           SKY/WX    TMP DP  RH WIND       PRES   REMARKS
GRAND JUNCTION FAIR      76  65  68 SE7       30.13R
MONTROSE       LGT RAIN  65  62  90 SW6       30.23F
EAGLE          NOT AVBL
RIFLE          PTSUNNY   77  60  55 W9        30.17R
DELTA          PTSUNNY   72  63  74 E8        30.20R
NUCLA          NOT AVBL
$$

COZ017>023-064>068-260200-
...SOUTHWEST COLORADO...

CITY           SKY/WX    TMP DP  RH WIND       PRES   REMARKS
DURANGO        PTSUNNY   74  54  49 SW7       30.24S
CORTEZ         PTSUNNY   69  59  70 NW26G38   30.20R
PAGOSA SPRINGS FAIR      78  47  33 W13       30.31S THUNDER
TELLURIDE      CLOUDY    61  56  83 CALM      30.46S
WOLF CREEK PAS CLOUDY    50  50 100 S10       30.68F
$$

COZ009-010-012-014-032>034-037-058>063-260200-
...CENTRAL COLORADO...

CITY           SKY/WX    TMP DP  RH WIND       PRES   REMARKS
ASPEN          PTSUNNY   67  57  70 CALM      30.32S
BUENA VISTA    CLOUDY    65  53  66 CALM      30.34S
COPPER MTN     RAIN      54  50  87 NW9       30.66R VSB 1/2
BERTHOUD PASS  HAZE      45  32  61 W5        30.69R VSB<1/4
COTTONWOOD PAS PTSUNNY   61  50  67 W13       30.48S
GUNNISON       LGT RAIN  63  58  83 CALM      30.34R
KREMMLING      CLOUDY    77  54  44 SW7       30.30R
LEADVILLE      LGT RAIN  57  50  77 NE5       30.47R
MONARCH PASS   PTSUNNY   50  48  93 W17G26    30.76R
SALIDA         CLOUDY    66  62  87 SW5       30.39R
SUNLIGHT       FOG       54  52  94 SW6       30.59R VSB 1/2
WILKERSON PASS PTSUNNY   57  45  62 CALM      30.62S
$$

COZ069>075-260200-
...SAN LUIS VALLEY/SANGRE DE CRISTO MOUNTAINS...

CITY           SKY/WX    TMP DP  RH WIND       PRES   REMARKS
ALAMOSA        FAIR      69  56  62 S16G24    30.27S
DEL NORTE      FAIR      75  53  45 E8        30.30S
LA VETA PASS   NOT AVBL
SAGUACHE         N/A    N/A N/A N/A MISG        N/A
$$

COZ035-036-038>040-260200-
...NORTHERN COLORADO FRONT RANGE...

CITY           SKY/WX    TMP DP  RH WIND       PRES   REMARKS
DENVER INTL AP LGT RAIN  71  62  73 NW8       30.15F
DMNS CITY PARK   N/A     72  59  65 N5G14     30.15R
AURORA         PTSUNNY   69  63  80 NW6       30.17R
FRONT RANGE AP LGT RAIN  70  63  78 N8        30.15F
ERIE MUNI ARPT FAIR      69  64  83 NE3       30.16S
BOULDER MUN AP LGT RAIN  72  55  56 W8        30.18R
CENTENNIAL     CLOUDY    68  62  81 W8        30.18R
BROOMFIELD     RAIN      70  63  78 NW12      30.18S
FORT COLLINS   LGT RAIN  73  61  65 NW8       30.16R
LONGMONT       LGT RAIN  70  63  78 NW6       30.18S
$$

COZ041-046-047-076>085-087-088-260200-
...PIKES PEAK/PALMER DIVIDE AND SOUTHERN FOOTHILLS...

CITY           SKY/WX    TMP DP  RH WIND       PRES   REMARKS
COLO. SPRINGS  TSTM      74  59  59 NW15G21   30.20R
A. F. ACADEMY  PTSUNNY   72  55  55 N13       30.19S
SCHRIEVER AFB  TSTM      72  57  58 SW17G24   30.20R
CHEYENNE MTN   SHOWER    68  57  66 SW7       30.20R
ELLICOTT       CLOUDY   N/A N/A N/A SW16G33   30.18R THUNDER
FALCON           N/A     71  56  58 SE13      30.27R
FORT CARSON    LGT RAIN  70  62  76 N10       30.15S
LIMON          LGT RAIN  72  62  71 N10       30.11R
MONUMENT HILL  PTSUNNY   64  55  72 NW12      30.27S
CANON CITY     SUNNY     75  66  73 NW6       30.10R
WALSENBURG     FAIR      82  63  51 S5        30.13S
TRINIDAD       FAIR      80  56  43 W15       30.12R
$$

COZ042>045-048>051-090-091-260200-
...NORTHEAST COLORADO...

CITY           SKY/WX    TMP DP  RH WIND       PRES   REMARKS
GREELEY ARPT   LGT RAIN  73  61  65 W13       30.13R
AKRON          LGT RAIN  81  54  39 W25G41    30.03R
BURLINGTON     FAIR      91  60  35 S15       29.96F
WRAY           NOT AVBL
YUMA           MOCLDY    88  54  31 W20G25    29.95R
STERLING       FAIR      88  54  31 SW23G31   29.95R
HOLYOKE        LGT RAIN  79  64  61 W18       29.94R
FORT MORGAN    PTSUNNY   77  55  47 W21G32    30.10R
$$

COZ086-089-092>099-260200-
...SOUTHEAST COLORADO...

CITY           SKY/WX    TMP DP  RH WIND       PRES   REMARKS
PUEBLO         FAIR      81  63  54 N12       30.01S
LA JUNTA       FAIR      89  56  32 SW14      29.97R
LAMAR          NOT AVBL
SPRINGFIELD      N/A     89  57  33 S14       30.00F
$$




USA.gov is the U.S. government's official web portal to all federal, state and local government web resources and services.